This demonstration page uses our WeatherBlox Daily Observations layout. Learn more.

Left ArrowRight Arrow

36.17497, -115.13722

Hourly Observations for November 6, 2020

Temp ( °F °C ) Dew Point ( °F °C ) Humidity (%) Winds ( mph kmh ) Pressure ( in mb ) Visibility ( mi km ) Precip ( " mm )
12:53 am 00:53 Clear 67 19.4 32 0 27 27 W 6 9 29.81 1010 10 16 0.00 0.00
1:53 am 01:53 Clear 65 18.3 32 0 29 29 Calm 29.79 1009 10 16 0.00 0.00
2:53 am 02:53 Clear 66 18.9 33 0.6 29 29 W 5 7 29.76 1008 10 16 0.00 0.00
3:53 am 03:53 Clear 64 17.8 33 0.6 32 32 W 5 7 29.74 1007 10 16 0.00 0.00
4:53 am 04:53 Clear 63 17.2 33 0.6 33 33 W 3 6 29.72 1007 10 16 0.00 0.00
5:53 am 05:53 Clear 63 17.2 32 0 31 31 NNW 3 6 29.71 1006 10 16 0.00 0.00
6:53 am 06:53 Sunny 64 17.8 32 0 30 30 W 5 7 29.70 1006 10 16 0.00 0.00
7:53 am 07:53 Sunny 68 20 34 1.1 28 28 NNW 3 6 29.70 1006 10 16 0.00 0.00
8:53 am 08:53 Sunny 74 23.3 32 0 21 21 ENE 3 6 29.67 1005 10 16 0.00 0.00
9:53 am 09:53 Sunny 76 24.4 30 -1.1 18 18 Calm 29.65 1004 10 16 0.00 0.00
10:53 am 10:53 Sunny 80 26.7 31 -0.6 17 17 Calm 29.62 1003 10 16 0.00 0.00
11:53 am 11:53 Sunny 82 27.8 31 -0.6 16 16 ESE 7 11 29.57 1001 10 16 0.00 0.00
12:53 pm 12:53 Sunny 88 31.1 22 -5.6 9 9 SSW 18 30 29.51 999 10 16 0.00 0.00
1:53 pm 13:53 Sunny 85 29.4 24 -4.4 11 11 SSW 10 17 29.51 999 10 16 0.00 0.00
2:53 pm 14:53 Sunny 86 30 22 -5.6 9 9 SW 13 20 29.48 998 10 16 0.00 0.00
3:53 pm 15:53 Sunny 84 28.9 23 -5 10 10 S 12 19 29.47 998 10 16 0.00 0.00
4:53 pm 16:53 Clear 81 27.2 22 -5.6 11 11 S 8 13 29.47 998 10 16 0.00 0.00
5:53 pm 17:53 Clear 79 26.1 26 -3.3 14 14 SSE 17 28 29.48 998 10 16 0.00 0.00
6:53 pm 18:53 Clear 77 25 27 -2.8 16 16 S 16 26 29.47 998 10 16 0.00 0.00
7:53 pm 19:53 Clear 76 24.4 26 -3.3 16 16 SSE 20 31 29.46 998 10 16 0.00 0.00
8:53 pm 20:53 Clear 73 22.8 26 -3.3 17 17 SSE 7 11 29.47 998 10 16 0.00 0.00
9:53 pm 21:53 Clear 71 21.7 25 -3.9 18 18 SE 10 17 29.47 998 10 16 0.00 0.00
10:53 pm 22:53 Clear 73 22.8 26 -3.3 17 17 S 16 26 29.44 997 10 16 0.00 0.00
11:53 pm 23:53 undefined 72 22.2 27 -2.8 19 19 SSW 9 15 29.43 997 10 16 0.00 0.00

Powered by AerisWeather